COSMOS 2251 DEB

Last updated on Thu Aug 20 2026 00:02:37 GMT+0000 (Coordinated Universal Time)

1 53093U 93036BYP 26231.01592534 .00001378 00000+0 41812-3 0 9991 2 53093 74.0338 198.9376 0022023 225.6295 134.3059 14.43015126213200
UTC large
Height (km)
Speed (km/s)
/
Latitude / Longitude
Inclination (degrees)
Orbital Period (minutes)
Azimuth
Elevation
Range (km)
Doppler Factor

Next 0 passes for location: London (51.5072 / 0.1276)

No passes found over London.
COSMOS 2251 DEB